Terug naar catalogus

STARLINK-36567

ActiefCommunicatieSSO
NORAD 67552·PAYLOAD·🇺🇸 United States

Gelanceerd Jan 22, 2026 vanaf Vandenberg Space Force Base

Loading…

Volgende Passages (komende 24 uur)

TLE

VersSource: CelesTrak SupGP

Epoch: Sep 15, 2026, 02:33 UTC

1 67552C 26014W   26258.10673611  .00086540  00000+0  26855-2 0  2584
2 67552  97.2848 143.5944 0002297  96.8993 310.2258 15.33404197    18

Volg STARLINK-36567 in realtime met AllMySat

Download on the App Store